Regional Weather Roundup
Issued by NWS

Home | Current Version | Previous Version | Text Only | Print | Product List | Glossary On
Versions: 1 2 3 4 5 6 7 8 9 10 11 12 13 14 15 16 17 18 19 20 21 22 23 24 25 26 27 28 29 30 31 32 33 34 35 36 37 38 39 40 41 42 43 44 45 46 47 48 49 50
000
ASUS43 KDMX 311807
RWRIA

WEATHER ROUNDUP FOR IOWA
NATIONAL WEATHER SERVICE DES MOINES IA
100 PM CDT MON AUG 31 2015

NOTE: "FAIR" INDICATES FEW OR NO CLOUDS BELOW 12,000 FEET WITH NO
SIGNIFICANT WEATHER AND/OR OBSTRUCTIONS TO VISIBILITY.

* - THESE STATIONS ARE NOT NWS STATIONS...THUS NOT UNDER NWS
QUALITY CONTROL.  THEY ALSO DO NOT REPORT WEATHER SUCH
AS PRECIPITATION OR FOG.

IAZ001>003-012>014-020>022-031>034-043>046-311900-
   NORTHWEST IOWA

CITY           SKY/WX    TMP DP  RH WIND       PRES   REMARKS
CARROLL *      PTSUNNY   81  73  78 SW10      29.97F HX  85
CHEROKEE *     MOSUNNY   80  70  70 S14G23    29.95F HX  83
DENISON *      MOSUNNY   79  72  78 S13G20    29.95F HX  82
LE MARS *      SUNNY     81  70  69 S20G26    29.93F HX  84
ORANGE CITY *  SUNNY     81  70  69 S17G25    29.92F HX  84
SHELDON *      MOSUNNY   79  70  73 S14G26    29.92F HX  81
SIOUX CITY     SUNNY     82  68  62 S15       29.92F HX  85
6HR MIN TEMP:  63; 6HR MAX TEMP:  82;

SPENCER        HAZE      80  67  64 S18G25    29.95F VSB 1/4 HX  82
6HR MIN TEMP:  62; 6HR MAX TEMP:  80;

STORM LAKE *   MOSUNNY   79  70  73 S14G20    29.97F HX  81
$$

IAZ055>058-069>071-079>083-090>094-311900-
   SOUTHWEST IOWA

CITY           SKY/WX    TMP DP  RH WIND       PRES   REMARKS
ATLANTIC *     MOSUNNY   81  73  78 S10       29.97F HX  85
AUDUBON *      MOSUNNY   81  73  78 S9        29.99F HX  85
CLARINDA *     MOSUNNY   82  73  74 S12       29.99F HX  88
COUNCIL BLFS * MOSUNNY   81  68  65 S13       29.97S HX  83
CRESTON *      PTSUNNY   82  73  74 S12       30.00F HX  88
LAMONI         MOSUNNY   84  73  69 S8        29.99F HX  90
6HR MIN TEMP:  68; 6HR MAX TEMP:  85;

RED OAK *      PTSUNNY   82  72  69 S10       29.98S HX  87
SHENANDOAH *   MOSUNNY   84  68  58 S8        29.97F HX  87
$$

IAZ047>049-059>061-072>074-084-311900-
   CENTRAL IOWA

CITY           SKY/WX    TMP DP  RH WIND       PRES   REMARKS
AMES           MOSUNNY   83  73  72 S14       29.98F HX  89
6HR MIN TEMP:  62; 6HR MAX TEMP:  83;

ANKENY *       PTSUNNY   84  73  70 S9        29.98S HX  91
CHARITON *     MOSUNNY   84  73  70 S9G16     29.99F HX  91
DES MOINES     MOSUNNY   85  71  63 S12       29.97F HX  90
6HR MIN TEMP:  68; 6HR MAX TEMP:  86;

GRINNELL*      MOSUNNY   84  72  65 S15       30.01S HX  89
KNOXVILLE *    MOSUNNY   84  72  65 S10G17    29.98F HX  89
MARSHALLTOWN   CLOUDY    82  73  74 S9        29.98F HX  87
6HR MIN TEMP:  61; 6HR MAX TEMP:  82;

PELLA *        MOSUNNY   85  75  71 S8        30.00F HX  94
PERRY *        PTSUNNY   84  73  70 S9        29.97F HX  91
$$

IAZ004>006-015-016-023>025-035-036-311900-
   NORTH CENTRAL IOWA

CITY           SKY/WX    TMP DP  RH WIND       PRES   REMARKS
ALGONA *       MOSUNNY   81  72  74 S15G21    29.97S HX  84
CLARION *      PTSUNNY   82  73  74 S14       29.97F HX  88
ESTHERVILLE    MOSUNNY   79  69  71 S15       29.95F HX  81
6HR MIN TEMP:  63; 6HR MAX TEMP:  79;

FORT DODGE *   MOSUNNY   82  72  69 S13       29.98S HX  87
MASON CITY     MOSUNNY   83  74  74 S14       29.98F HX  89
6HR MIN TEMP:  61; 6HR MAX TEMP:  83;

FOREST CITY *  PTSUNNY   79  70  73 S16       29.97F HX  81
IOWA FALLS *     N/A     82  73  74 S9        30.00F HX  88
$$

IAZ007>011-017>019-026>030-037>042-050>054-066-311900-
   NORTHEAST IOWA

CITY           SKY/WX    TMP DP  RH WIND       PRES   REMARKS
CEDAR RAPIDS   SUNNY     82  74  76 S9        30.02F HX  88
6HR MIN TEMP:  61; 6HR MAX TEMP:  82;

CHARLES CITY * MOSUNNY   81  75  83 S12       30.00F HX  86
CLINTON *      MOSUNNY   82  72  69 SE7       30.06F HX  87
DECORAH *      PTSUNNY   81  72  74 S8G15     30.01F HX  84
DUBUQUE        SUNNY     80  71  74 S8        30.05F HX  84
6HR MIN TEMP:  59; 6HR MAX TEMP:  80;

MONTICELLO *   MOSUNNY   82  72  69 S7        30.03S HX  87
OELWEIN *      MOSUNNY   81  73  78 S7G14     30.02F HX  85
WATERLOO       SUNNY     83  71  67 S14       29.99F HX  87
6HR MIN TEMP:  62; 6HR MAX TEMP:  83;

$$

IAZ064-065-067-068-078-311900-
   EAST CENTRAL IOWA

CITY           SKY/WX    TMP DP  RH WIND       PRES   REMARKS
DAVENPORT      MOSUNNY   84  70  62 S7        30.04F HX  88
6HR MIN TEMP:  63; 6HR MAX TEMP:  84;

IOWA CITY      MOSUNNY   85  73  67 SE10      30.02F HX  91
6HR MIN TEMP:  62; 6HR MAX TEMP:  85; 6HR PCP: TRACE;

MT. PLEASANT * MOSUNNY   88  68  50 S9        30.02F HX  92
MUSCATINE *    MOSUNNY   88  70  55 S12G18    30.02F HX  92
QUAD CITIES    SUNNY     86  70  58 S8        30.03F HX  90
6HR MIN TEMP:  60; 6HR MAX TEMP:  86;

$$

IAZ062-063-075>077-085>089-095>099-311900-
   SOUTHEAST IOWA

CITY           SKY/WX    TMP DP  RH WIND       PRES   REMARKS
BURLINGTON     SUNNY     86  74  67 S9        30.03F HX  94
6HR MIN TEMP:  67; 6HR MAX TEMP:  86;

FAIRFIELD *    MOSUNNY   86  70  58 S10       30.01F HX  90
FORT MADISON * SUNNY     86  75  70 S3        30.03F HX  95
KEOKUK *       MOSUNNY   88  70  55 SE9       30.01F HX  92
OSKALOOSA *      N/A     86  71  60 S12       30.01F HX  91
CENTERVILLE *  SUNNY     84  73  70 SE9       30.02F HX  91
OTTUMWA        MOSUNNY   84  73  69 S9        29.99F HX  90
6HR MIN TEMP:  63; 6HR MAX TEMP:  85;

WASHINGTON *     N/A    N/A N/A N/A MISG        N/A
$$

ABBREVIATIONS USED IN REMARKS
   TC - TEMPERATURES IN CELSIUS
  WCI - WIND CHILL INDEX
   HX - HEAT INDEX
  VSB - VISIBILITY
$$



USA.gov is the U.S. government's official web portal to all federal, state and local government web resources and services.